Back to catalog

ONEWEB-0691

AliveCommunicationsPO
NORAD 61599·PAYLOAD·🇬🇧 United Kingdom

Launched Oct 20, 2024 from Vandenberg Space Force Base

Loading…

Next Passes (next 24 hours)

TLE

FreshSource: CelesTrak SupGP

Epoch: Sep 14, 2026, 15:19 UTC

1 61599C 24188F   26257.63833750  .00002420  00000+0  68376-2 0  2576
2 61599  87.8975   3.2014 0002010 113.3571 353.6483 13.11407911    11

Track ONEWEB-0691 in real time with AllMySat

Download on the App Store